Regional Weather Roundup
Issued by NWS Goodland, KS

Home | Current Version | Previous Version | Text Only | Print | Product List | Glossary Off
Versions: 1 2 3 4 5 6 7 8 9 10 11 12 13 14 15 16 17 18 19 20 21 22 23 24 25 26 27 28 29 30 31 32 33 34 35 36 37 38 39 40 41 42 43 44 45 46 47 48 49 50

000
ASUS43 KGLD 010359
RWRGLD

GOODLAND FORECAST AREA HOURLY WEATHER ROUNDUP
NATIONAL WEATHER SERVICE GOODLAND KS
900 PM MST SAT JAN 31 2015

...OFFICIAL OBSERVATIONS...

CITY           SKY/WX    TMP DP  RH WIND       PRES   REMARKS
GOODLAND KS    FLURRIES  31  31 100 N13       29.83R
HILL CITY KS   LGT SNOW  33  31  92 N14       29.80R FOG
IMPERIAL NEB   LGT SNOW  25  21  85 N20       29.90R VSB 3/4 WCI  11
MCCOOK NEB     LGT SNOW  31  28  89 N17G28    29.85R VSB 1   WCI  19
AKRON CO       CLOUDY    29  29 100 N18       29.86R WCI  16
BURLINGTON CO  CLOUDY    32  30  92 N14       29.82R
LIMON CO       CLOUDY    31  31 100 N15       29.82S FOG
$$

...UNOFFICIAL OBSERVATIONS...

CITY           SKY/WX    TMP DP  RH WIND       PRES   REMARKS
GOVE KS          N/A     34  32  92 MISG        N/A
SHARON SPRINGS   N/A     34  33  95 N9          N/A
KIT CARSON CO    N/A     34  31  90 MISG        N/A
YUMA CO          N/A     32  30  92 N12         N/A
$$



USA.gov is the U.S. government's official web portal to all federal, state and local government web resources and services.